Location: Banksville Park
(38.5557°N, 75.1182°W)
Time: 04:16:00
(UTC+00:00)

Envisat - Pass Details

Date: 01 December 2020
Orbit: 764 x 766 km, 98.1° (Epoch: 16 January)

Event Time Altitude Azimuth Distance (km) Brightness Sun altitude
Rises 23:13:51 0° 205° (SSW) 3,218 6.8 -18.0°
Reaches altitude 10° 23:16:49 10° 223° (SW) 2,297 6.3 -18.6°
Maximum altitude 23:20:18 19° 267° (W) 1,781 5.9 -19.2°
Drops below altitude 10° 23:23:49 10° 311° (NW) 2,309 5.9 -19.9°
Sets 23:26:50 0° 330° (NNW) 3,240 6.5 -20.5°
